Member area
Imprimable
Challenges > Delhalle - Chatelet, 06/06/2010, BEL - La Chatelettaine
List of reports > Delhalle - Result
Search: Page: [1]
95 Entries
 
Complains are not accepted anymore. Results are final.
PlaceNrNameAgeNATLeagueTeamRealTimeTkmMoy.ScrPtsCity
1.4VANDERBECK Yves42BELRIWARONVAU49:5950:013:07 19.3191045MALONNE
2.238VAN DEN ABEELE Sebastian40BELACLO50:2950:293:09 19.13101036CARNIERES
3.342LOMBART Frederic43BELOCAN52:1852:183:15 18.46121000GEMBLOUX
4.767CAMBRAI Christian46BELDAMP52:4652:483:17 18.2914990LIBRAMONT
5.562MATHOREL Jean-Michel47BELDSDS RUNNING55:4255:433:28 17.3319935BAUDOUR
6.406NEYMAN Eric42BEL56:0356:063:30 17.2122926HERON
7.2815VAN DEN BERGH Alain48BEL56:3156:323:31 17.0825916COURCELLES
8.278HANOT Serge47BELRONVAU56:4156:423:32 17.0326913LIERNU
9.228MARCHAL Yves40BELRUN WILD57:2357:263:35 16.8129899VEDRIN
10.2179HAUTPHENNE Eddy43BELUSBWUSBW59:4059:483:43 16.1537855BRAINE-L'ALLEUD
11.275COLLOT Joseph46BELANTILOB1:00:071:00:103:45 16.0539846GREZ-DOICEAU
12.2247COVOLAN Sergio48ITA1:00:151:00:203:45 16.0141842MARCINELLE
13.2248SPOELHOUT Thierry40BEL1:00:441:00:593:48 15.8443833CIPLET
14.719VAUDOISEY Pascal48BELRCBMYSTERE1:01:241:01:283:50 15.7149818BRUXELLES
15.2255MICHAUX Fabrice46BEL1:01:421:01:443:51 15.6452811
16.2152TILLET Alain43FRAJC VIMOUTIER1:01:511:01:533:51 15.6153808VIMOUTIERS
17.2263PAVONE Sergio47ITA1:02:101:02:133:52 15.5256800
18.2174JACQUY Rudy49BELGERPINNES &1:02:111:02:143:52 15.5257799
19.2161DESPONTIN Fabien40BELOSCARMANIA1:02:401:02:453:54 15.3961789
20.120DIEPENDAELE Rudi47BELACLOTOTAL1:02:391:02:463:54 15.3962788LA HESTRE
21.106LORGE Jean Marc44BELRONVAU1:03:041:03:093:56 15.2965780EGHEZEE
22.991DE HERTOG Philippe40BELGRIMAFRIT 71:03:291:03:413:58 15.1671768WETTEREN
23.193DI BIASE Renato45BELBOUFFIOL1:03:591:04:033:59 15.0873760COUILLET
24.2804SATTA Costantin46BELUACUAC DILAVILL1:04:291:04:324:01 14.9677749COUILLET
25.2826MORO Terry45BEL1:04:131:04:364:01 14.9578752
26.2824DEPUTTER Francis44BELTAIAUT1:04:341:04:564:03 14.8786741CHATELET
27.738WILLEMS Lucas49BEL1:05:191:05:244:04 14.7789727SAINT MARTIN
28.264SCAILLET Vincent41BEL1:05:151:05:284:05 14.7590727HEER
29.2821WARIN Didier46BEL1:05:381:05:494:06 14.6793720DILBEEK
30.134GILON Marc47BELRCNAMUR1:05:381:05:504:06 14.6794719NAMUR
31.446RIJCKAERT Fabian40BEL1:06:111:06:214:08 14.5597708ANDENNE
32.128BAURIN Herve45BEL1:06:291:06:354:09 14.5099703AGIMONT
33.43SEGHIN Vincent45BELESM1:06:231:06:424:09 14.48101702THUIN
34.82CHARLIER Michel40BELRTBRA1:06:401:06:584:10 14.42104696REMICOURT
35.685LETELLIER Jean Luc45BEL1:07:251:07:324:12 14.30110680WAVRE
36.617BAIJOT Bernard49BELJCCS1:07:051:07:324:12 14.30111684HOUDREMONT
37.2177TUTELAIRE Marc47BEL1:07:311:07:354:12 14.29112677
38.736DEFALQUE Alban42BELANTILOB1:07:401:07:484:13 14.24113674BOUSVAL
39.126DELVAUX Philippe47BELSMAC1:07:461:07:564:14 14.22116671JAMBES
40.339VAN WEVERBERG Marc47BELJOGGANS1:08:281:08:404:16 14.06126653GANSHOREN
41.2166RENIER Dominique46BELRT BRAIVES1:08:241:08:474:17 14.04129652TOURINNE
42.704VANDAM Jean47BELANTILOB1:08:551:09:054:18 13.98133641COURT SAINT ETI
43.536RYCKEBOER Marc44BELRCB1:08:571:09:094:18 13.97136638LA HULPE
44.269NENNEN Arnaud47BELSMACSMAC1:09:001:09:104:18 13.96137637GELBRESSEE
45.498HEYNDRICKX Jan48BELKAPUCIJN1:09:241:09:374:20 13.87144626BERTEM
46.337DAMSTEN Thierry46BEL1:09:351:09:484:21 13.84146622ROSIERES
47.404TILBURGS Frank43BELAVN1:09:471:09:594:21 13.80149616MEER
48.127GRANDMONT Andre49BELARCH1:09:431:10:004:21 13.80150617DINANT
49.2244GASMANE Christophe40BEL1:10:371:10:394:24 13.67156600
50.2243GOOSSENS Jean-Leon47BELBOUFFIOLS1:10:441:11:104:26 13.57162593
51.594PARDON Pascal43BEL1:11:071:11:204:26 13.54164586MELLET
52.653SERON Benoit49BEL1:11:191:11:234:27 13.53165583MALONNE
53.673CAMPION Sylvain47BEL1:11:061:11:254:27 13.52166585DIEPENBEEK
54.499LAURENT Philippe44BELBAIL RUN1:11:131:11:404:28 13.47167583YVOIR
55.477GRANDMONT Jean Noel43BEL1:11:201:11:424:28 13.47168580NASSOGNE
56.203ALBERT Michel49BELRONVAU1:11:511:12:034:29 13.40173570LIERNU
57.2181DRUGMAND Fabian40BELTHEODO TEMPO1:12:051:12:214:30 13.35175565
58.227PATERNOSTRE Jean-Jacques48BELWAIKIKI1:12:201:12:344:31 13.31178559JUMET
59.812BATISTIC Patrick46BELRONVAU1:12:251:12:384:31 13.30179558NALINNES
60.2825DUBREUCQ Andre47BELBOUFFIOL1:12:331:13:094:33 13.20190547DAMPREMY
61.2208COULON Ruddy48BELCLERMONTOISE1:13:061:13:184:34 13.17191539
62.2148MATHIEU Michel49BEL1:13:081:13:324:35 13.13193537DILBEEK
63.2191VAN LEUVEN Claude46BELCRAC1:13:221:13:414:35 13.11195532MONTIGNIES S/SA
64.2218LALOYAUX Laurent40BEL1:13:411:13:564:36 13.06196527GOZÉE
65.2270GERMAIN Dominique48BEL1:14:311:14:384:39 12.94205510
66.2143GOLDSWORTHY Daniel40GBRJC VIMOUTIER1:15:281:15:504:43 12.73224482VIMOUTIERS
67.624LONGEVAL Jan45BEL1:15:311:15:584:44 12.71226480DEURLE
68.2236EGELS Philippe49BEL1:16:271:16:554:47 12.56232464
69.321ORVAL Alain41BELHAC1:16:551:16:574:47 12.55235456CINEY
70.107EVRARD Pierre49BEL1:17:531:18:064:52 12.36245436MALONNE
71.2822DUVIVIER Philippe47BELTORTUE MESLI1:18:141:18:384:54 12.28250427ATH
72.2141JAY Gérard46FRAJC VIMOUTIER1:18:451:19:014:55 12.22255417VIMOUTIERS
73.2251SWIER Dirk-Jan40NLD1:18:581:19:264:57 12.16261410
74.2197HANSET Benoit45BELJOGGING NATU1:19:121:19:354:57 12.13266403CHATELET
75.674THONON Jean Marc43BELRT BR1:19:231:19:434:58 12.11269398CIPLET
76.196MALENGREAUX Patrice48BELTORTUES1:19:491:20:124:59 12.04274389BRAY
77.919ABRASSART Christian48BELBIN1:20:051:20:315:01 11.99275385JODOIGNE
78.2799CASTELLINI Fabrizio48BELGERPINNE & C1:20:261:20:505:02 11.95282376GERPINNES
79.2269POZZI Stephane42BEL1:21:321:21:585:06 11.78294353CHARLEROI
80.2273MICHELS Bernard47BEL1:22:361:23:055:10 11.62312326COURT-SAINT-ETI
81.2150ROLAND Hubert43BEL1:24:401:25:105:18 11.34335284BRUXELLES
82.2215BOGOCCO Angelo47BEL1:24:501:25:135:18 11.33336282
83.2797KLEKER Yves48BEL1:26:331:26:515:24 11.12345255VIMOUTIERS
84.629DIGIUGNO Cateno Rolando49BELUACDILAVILE1:28:511:29:165:33 10.82356222GILLY
85.2196BARAO DOS SANTOS Vitoriano47PRTLES CAPAINS1:29:401:29:595:36 10.73362208CHATELET
86.13AUDRIT Philippe49BELSERSERUNNER1:31:071:31:255:41 10.56367189BONCELLES
87.2200MOLITOR Luc46BEL1:31:341:32:065:44 10.49368184
88.2224BORGHANS Dominique40BELENJAMBEE1:33:151:33:235:49 10.34376160
89.2133DAFFE Philippe41BELBAILRUN1:33:211:33:455:50 10.30381155YVOIR
90.2239POSTIAUX Denis46BEL1:34:401:35:135:55 10.14386138
91.452DEWAELE Philippe49BEL5 ET +1:35:331:36:045:59 10.05388127THIBESSART
92.380FIGEYS Manuel47BEL1:37:501:38:106:06 9.8439599WAVRE
93.162PEETERS Jacques41BEL1:38:121:38:416:08 9.7939695ALLEUR
94.8ANTOINE Alain49BELRCNAMUR1:41:041:41:256:19 9.5240163BOUGE
DNF2129BLAMPAIN Serge49BELESMMONTIGNIES SUR
DNF: did not finish; DSQ: disqualified; Speed in km/h
Page: [1]